[[[{"header":{"parameterUnit":"kt","parameterCategory":2,"dx":1,"dy":1,"la1":30.253999710083008,"la2":30.299108505249023,"lo1":-89.0895004272461,"lo2":-89.04439544677734,"nx":28,"ny":28,"refTime":"2022-10-18T21:00:00:Z","depth":0,"parameterNumber":1,"parameterNumberName":"U-component_of_WINDS"},"data":[-3.5923,-3.6147,-3.6149,-3.6405,-3.6451,-3.6627,-3.669,-3.6772,-3.6838,-3.7047,-3.7168,-3.7192,-3.7259,-3.7403,-3.7534,-3.7542,-3.76,-3.7675,-3.7673,-3.7328,-3.7281,-3.7236,-3.7185,-3.7686,-3.7687,-3.8032,-3.8036,-3.8038,-3.5666,-3.5713,-3.5849,-3.5984,-3.61,-3.6027,-3.6127,-3.623,-3.639,-3.6472,-3.6591,-3.6776,-3.6921,-3.6964,-3.7104,-3.7209,-3.7185,-3.7247,-3.7243,-3.7255,-3.6885,-3.683,-3.7264,-3.7264,-3.7264,-3.7264,-3.7264,-3.7264,-3.5199,-3.5333,-3.5416,-3.5565,-3.5632,-3.5722,-3.585,-3.5878,-3.6012,-3.616,-3.6136,-3.6317,-3.6401,-3.6572,-3.6631,-3.6771,-3.6703,-3.6773,-3.6793,-3.6812,-3.6834,-3.634,-3.6794,-3.6793,-3.6792,-3.6791,-3.679,0,-3.4861,-3.4854,-3.4985,-3.5118,-3.5226,-3.5329,-3.5424,-3.5502,-3.549,-3.5601,-3.5762,-3.5855,-3.6039,-3.6191,-3.6324,-3.6371,-3.6312,-3.6304,-3.6353,-3.6372,-3.6369,-3.6378,-3.5778,-3.6293,-3.6289,-3.6286,-3.6283,-3.6282,-3.4395,-3.455,-3.4639,-3.473,-3.4783,-3.4932,-3.5021,-3.4998,-3.5094,-3.5208,-3.5327,-3.5478,-3.56,-3.5857,-3.589,-3.6028,-3.6002,-3.6199,-3.6023,-3.6031,-3.6011,-3.6005,-3.6022,-3.6236,-3.6242,-3.6247,-3.6251,0,-3.4133,-3.4138,-3.438,-3.4452,-3.4475,-3.4639,-3.4701,-3.4834,-3.4847,-3.5032,-3.5074,-3.5097,-3.5256,-3.5258,-3.5439,-3.5436,-3.5707,-3.5675,-3.5678,-3.5674,-3.5853,-3.5839,-3.6428,-3.6506,-3.598,-3.5985,-3.5989,0,-3.3741,-3.3946,-3.3941,-3.4082,-3.4308,-3.428,-3.4505,-3.454,-3.4612,-3.4758,-3.4688,-3.4826,-3.4806,-3.4944,-3.494,-3.5161,-3.5194,-3.5206,-3.5204,-3.5217,-3.5216,-3.5274,-3.5252,-3.5186,-3.5183,-3.518,-3.5178,0,-3.3337,-3.3573,-3.3799,-3.3855,-3.3955,-3.4061,-3.4108,-3.4189,-3.4278,-3.4392,-3.445,-3.4584,-3.466,-3.4765,-3.4759,-3.464,-3.5028,-3.4864,-3.5042,-3.5043,-3.5134,-3.513,-3.5645,-3.5174,-3.5173,-3.5172,-3.5171,0,-3.3023,-3.3139,-3.3466,-3.3547,-3.3611,-3.376,-3.3892,-3.402,-3.4111,-3.4118,-3.4208,-3.4164,-3.4355,-3.4192,-3.4456,-3.4304,-3.4382,-3.441,-3.4422,-3.4447,-3.4266,-3.4564,-3.5048,-3.5102,-3.4458,-3.4452,-3.4447,0,-3.256,-3.2892,-3.2872,-3.3183,-3.3337,-3.325,-3.3415,-3.3498,-3.3521,-3.3655,-3.3678,-3.3833,-3.3711,-3.3761,-3.3889,-3.3923,-3.4121,-3.3895,-3.4094,-3.4102,-3.4078,-3.4522,-3.4598,-3.494,-3.4371,-3.4379,-3.4385,0,-3.2204,-3.2324,-3.2381,-3.2444,-3.255,-3.2679,-3.2867,-3.3013,-3.3104,-3.3204,-3.3365,-3.3578,-3.3496,-3.3579,-3.3559,-3.3694,-3.3986,-3.3589,-3.3591,-3.3665,-3.4332,-3.4402,-3.446,-3.3942,-3.3951,-3.3959,-3.4324,0,-3.1738,-3.1904,-3.2056,-3.2198,-3.2297,-3.2491,-3.2495,-3.2598,-3.2568,-3.2589,-3.2822,-3.2894,-3.3045,-3.3109,-3.3083,-3.339,-3.3341,-3.3252,-3.3101,-3.339,-3.3511,-3.356,-3.2919,-3.2914,-3.2911,-3.2908,0,0,-3.1297,-3.1536,-3.151,-3.1693,-3.1776,-3.1685,-3.1893,-3.1963,-3.2108,-3.2168,-3.208,-3.2396,-3.2459,-3.2743,-3.2833,-3.2893,-3.295,-3.285,-3.3251,-3.3289,-3.3324,-3.3454,-3.3504,-3.2901,-3.2899,-3.2898,-3.2897,0,-3.1129,-3.1192,-3.1397,-3.1468,-3.1572,-3.1584,-3.1633,-3.1722,-3.1745,-3.1973,-3.1899,-3.2039,-3.2292,-3.237,-3.2443,-3.2813,-3.2752,-3.2858,-3.3057,-3.3212,-3.3255,-3.3294,-3.3429,-3.3478,-3.2888,-3.2888,-3.2889,0,-3.0783,-3.0847,-3.0946,-3.1128,-3.1197,-3.1358,-3.1196,-3.1373,-3.1493,-3.1389,-3.1618,-3.1659,-3.1763,-3.203,-3.2149,-3.2075,-3.2572,-3.2415,-3.2439,-3.2455,-3.2606,-3.2657,-3.2704,-3.2096,-3.2093,-3.2091,0,0,-3.0638,-3.0792,-3.0856,-3.1093,-3.1141,-3.1162,-3.1248,-3.1229,-3.1323,-3.1362,-3.1415,-3.151,-3.1656,-3.1754,-3.1892,-3.2184,-3.2206,-3.2318,-3.2355,-3.2385,-3.2418,-3.2576,-3.2627,-3.208,-3.208,-3.208,0,0,-3.057,-3.0653,-3.0607,-3.0882,-3.0973,-3.1054,-3.12,-3.1145,-3.127,-3.1249,-3.1227,-3.1251,-3.15,-3.1545,-3.1403,-3.184,-3.1687,-3.1722,-3.1803,-3.185,-3.1887,-3.1874,-3.1253,0,0,0,0,0,-3.0403,-3.0642,-3.0599,-3.0646,-3.0878,-3.1077,-3.1107,-3.1093,-3.0985,-3.11,-3.1136,-3.1064,-3.1464,-3.1338,-3.1385,-3.1546,-3.1945,-3.1969,-3.1991,-3.2164,-3.2214,-3.2255,0,0,0,0,0,0,-3.0421,-3.0478,-3.0592,-3.0683,-3.0735,-3.1068,-3.0883,-3.0886,-3.0972,-3.0955,-3.1059,-3.1067,-3.106,-3.1312,-3.1356,-3.1509,-3.1238,-3.1954,-3.1975,-3.1993,-3.2181,-3.2222,-3.2256,0,0,0,0,0,-3.0435,-3.0481,-3.0858,-3.068,-3.0725,-3.0763,-3.0874,-3.0875,-3.0942,-3.0999,-3.1004,-3.0924,-3.1064,-3.11,-3.1338,-3.1489,-3.1208,-3.1224,-3.1967,-3.1984,-3.1998,-3.2201,0,0,0,0,0,0,-3.0446,-3.0484,-3.0867,-3.088,-3.0589,-3.0744,-3.0768,-3.0866,-3.0979,-3.0987,-3.0861,-3.0846,-3.1071,-3.1097,-3.1125,-3.1483,-3.1183,-3.12,-3.121,-3.198,-3.1992,-3.2003,0,0,0,0,0,0,-3.0459,-3.0496,-3.0873,-3.0759,-3.0759,-3.0727,-3.0749,-3.0949,-3.0982,-3.0835,-3.0826,-3.0853,-3.103,-3.1097,-3.1118,-3.1431,-3.1165,-3.1181,-3.1191,-3.1198,-3.199,-3.2,0,0,0,0,0,0,-3.0475,-3.0506,-3.0756,-3.0756,-3.0755,-3.0904,-3.0904,-3.1144,-3.0882,-3.0832,-3.0858,-3.0847,-3.1031,-3.1052,-3.1113,-3.1418,-3.1427,-3.1165,-3.1176,-3.1184,-3.1189,0,0,0,0,0,0,0,-3.0487,-3.0278,-3.0788,-3.0753,-3.0752,-3.1003,-3.1007,-3.101,-3.088,-3.087,-3.0861,-3.0852,-3.1075,-3.1092,-3.1109,-3.1407,0,0,-3.1164,-3.1171,0,0,0,0,0,0,0,0,-3.0264,-3.0274,-3.0788,-3.0791,-3.0794,-3.1003,-3.1006,-3.1009,-3.0878,-3.087,-3.0863,-3.0856,-3.1079,-3.1093,-3.1108,0,0,0,0,0,0,0,0,0,0,0,0,0,0,0,-3.0788,-3.0791,0,-3.1004,-3.1006,-3.1009,-3.0877,-3.0871,-3.0864,-3.0858,-3.1083,-3.1095,-3.1106,0,0,0,0,0,0,0,0,0,0,0,0,0,0,0,0,0,0,0,0,0,0,0,0,0,0,0,0,0,0,0,0,0,0,0,0,0,0,0,0,0,0,0,0,0,0,0,0,0,0,0,0,0,0,0,0,0,0,0,0,0,0,0,0,0,0,0,0,0]}],[{"header":{"parameterUnit":"kt","parameterCategory":2,"dx":1,"dy":1,"la1":30.253999710083008,"la2":30.299108505249023,"lo1":-89.0895004272461,"lo2":-89.04439544677734,"nx":28,"ny":28,"refTime":"2022-10-18T21:00:00:Z","depth":0,"parameterNumber":2,"parameterNumberName":"V-component_of_WINDS"},"data":[-15.8153,-15.8505,-15.8518,-15.8923,-15.9002,-15.9279,-15.9381,-15.9514,-15.9621,-15.9947,-16.0136,-16.018,-16.0286,-16.051,-16.071,-16.0723,-16.0807,-16.0923,-16.0918,-16.0396,-16.0324,-16.0256,-16.0175,-16.0942,-16.0942,-16.1457,-16.1462,-16.1466,-15.7766,-15.785,-15.8069,-15.8289,-15.8476,-15.8372,-15.8536,-15.8697,-15.8946,-15.908,-15.9267,-15.9554,-15.9779,-15.9847,-16.0064,-16.0222,-16.0183,-16.028,-16.0267,-16.0285,-15.9728,-15.9642,-16.0308,-16.0308,-16.0307,-16.0307,-16.0307,-16.0307,-15.7064,-15.7275,-15.7417,-15.7654,-15.7768,-15.7914,-15.8114,-15.8166,-15.8376,-15.861,-15.858,-15.8859,-15.8991,-15.9256,-15.9346,-15.956,-15.9453,-15.9561,-15.9588,-15.9615,-15.9644,-15.8898,-15.9597,-15.9595,-15.9593,-15.9592,-15.959,0,-15.6554,-15.6551,-15.6762,-15.6978,-15.7151,-15.7317,-15.7471,-15.7595,-15.7586,-15.776,-15.8011,-15.8157,-15.8442,-15.8676,-15.888,-15.8951,-15.8856,-15.8847,-15.8921,-15.894,-15.8931,-15.8938,-15.8028,-15.8826,-15.882,-15.8815,-15.8811,-15.8809,-15.5845,-15.6091,-15.6244,-15.6391,-15.6478,-15.6715,-15.6856,-15.683,-15.6981,-15.7163,-15.7347,-15.7583,-15.777,-15.8166,-15.8216,-15.8427,-15.8382,-15.8686,-15.8413,-15.8421,-15.8386,-15.8371,-15.8394,-15.8739,-15.8748,-15.8755,-15.8761,0,-15.5445,-15.5465,-15.5848,-15.5974,-15.6013,-15.6269,-15.6374,-15.6582,-15.6607,-15.6895,-15.6959,-15.6999,-15.7243,-15.7245,-15.7524,-15.7516,-15.7929,-15.7881,-15.7883,-15.7873,-15.8144,-15.8119,-15.9027,-15.9144,-15.835,-15.8357,-15.8364,0,-15.4848,-15.517,-15.5179,-15.5401,-15.5756,-15.5722,-15.6073,-15.613,-15.6247,-15.6473,-15.6367,-15.6581,-15.6549,-15.6762,-15.6752,-15.709,-15.7142,-15.7156,-15.7149,-15.7166,-15.7164,-15.7242,-15.7205,-15.7126,-15.7121,-15.7117,-15.7113,0,-15.4219,-15.4602,-15.4961,-15.5051,-15.5217,-15.5386,-15.5462,-15.5591,-15.573,-15.5909,-15.5998,-15.6208,-15.6323,-15.6485,-15.647,-15.6285,-15.6884,-15.6626,-15.6897,-15.6898,-15.703,-15.7022,-15.7827,-15.7108,-15.7106,-15.7105,-15.7103,0,-15.3738,-15.3927,-15.4447,-15.4581,-15.4682,-15.4918,-15.5125,-15.5328,-15.5472,-15.5482,-15.5622,-15.5551,-15.5849,-15.5592,-15.6,-15.5763,-15.588,-15.5921,-15.594,-15.5966,-15.5679,-15.6132,-15.6899,-15.6979,-15.599,-15.5981,-15.5972,0,-15.3012,-15.3542,-15.3518,-15.4011,-15.4255,-15.4122,-15.4382,-15.4514,-15.4549,-15.4758,-15.4793,-15.5031,-15.4841,-15.4915,-15.5117,-15.5163,-15.5471,-15.5121,-15.5415,-15.5427,-15.5382,-15.6088,-15.6202,-15.6731,-15.5854,-15.5866,-15.5875,0,-15.2451,-15.2654,-15.2745,-15.2845,-15.3018,-15.3221,-15.3521,-15.3751,-15.3892,-15.4051,-15.4299,-15.4633,-15.4502,-15.4627,-15.459,-15.4801,-15.5261,-15.4631,-15.4634,-15.4744,-15.5795,-15.5901,-15.599,-15.5189,-15.5204,-15.5215,-15.5781,0,-15.172,-15.1988,-15.2232,-15.2459,-15.2617,-15.2927,-15.2934,-15.3098,-15.3048,-15.3079,-15.3443,-15.3551,-15.3782,-15.3884,-15.3837,-15.4318,-15.4237,-15.4096,-15.3846,-15.4309,-15.4496,-15.4572,-15.3567,-15.356,-15.3554,-15.3549,0,0,-15.1019,-15.1403,-15.1368,-15.166,-15.1791,-15.1648,-15.1978,-15.2088,-15.2315,-15.2406,-15.2267,-15.2755,-15.2849,-15.329,-15.3435,-15.3529,-15.3614,-15.3453,-15.4089,-15.4149,-15.4205,-15.4404,-15.4484,-15.3538,-15.3535,-15.3533,-15.3531,0,-15.0753,-15.086,-15.1189,-15.1302,-15.1469,-15.1486,-15.1565,-15.1704,-15.1739,-15.2098,-15.1972,-15.219,-15.2582,-15.2697,-15.2807,-15.34,-15.3291,-15.347,-15.3788,-15.4026,-15.4095,-15.4155,-15.4365,-15.4441,-15.3516,-15.3517,-15.3518,0,-15.0202,-15.0307,-15.0467,-15.0762,-15.0869,-15.1124,-15.0864,-15.1145,-15.1333,-15.1158,-15.1516,-15.1577,-15.1731,-15.2149,-15.2336,-15.2215,-15.2996,-15.275,-15.2789,-15.281,-15.3041,-15.3123,-15.3197,-15.2231,-15.2226,-15.2222,0,0,-14.9971,-15.022,-15.0323,-15.0705,-15.0782,-15.0812,-15.0948,-15.0914,-15.1059,-15.1117,-15.1193,-15.1335,-15.156,-15.1711,-15.1923,-15.2382,-15.2409,-15.2592,-15.2653,-15.2702,-15.275,-15.2994,-15.3075,-15.2205,-15.2205,-15.2204,0,0,-14.9859,-14.9995,-14.9921,-15.0366,-15.051,-15.0634,-15.0865,-15.0776,-15.0969,-15.0934,-15.0885,-15.0921,-15.1311,-15.1376,-15.1149,-15.1833,-15.1586,-15.164,-15.1778,-15.1855,-15.1914,-15.189,-15.0895,0,0,0,0,0,-14.9592,-14.9978,-14.991,-14.9986,-15.0357,-15.0672,-15.0719,-15.069,-15.0516,-15.0699,-15.0748,-15.0622,-15.1243,-15.1041,-15.1114,-15.1368,-15.1987,-15.2026,-15.2062,-15.2347,-15.2427,-15.2495,0,0,0,0,0,0,-14.9621,-14.9714,-14.9899,-15.0041,-15.0124,-15.0658,-15.0356,-15.0359,-15.0495,-15.0467,-15.0617,-15.0627,-15.0606,-15.1001,-15.1068,-15.1309,-15.0872,-15.2002,-15.2035,-15.2065,-15.2375,-15.244,-15.2496,0,0,0,0,0,-14.9645,-14.9719,-15.0323,-15.0035,-15.0107,-15.0161,-15.0341,-15.0341,-15.0446,-15.0523,-15.0528,-15.0412,-15.0614,-15.0667,-15.104,-15.1279,-15.0826,-15.0851,-15.2023,-15.2049,-15.2073,-15.2407,0,0,0,0,0,0,-14.9662,-14.972,-15.0337,-15.0357,-14.9888,-15.013,-15.0168,-15.0326,-15.0492,-15.0502,-15.0312,-15.0288,-15.0624,-15.0664,-15.0706,-15.1271,-15.0788,-15.0814,-15.083,-15.2043,-15.2063,-15.2082,0,0,0,0,0,0,-14.9679,-14.9739,-15.0347,-15.0163,-15.0162,-15.0102,-15.0136,-15.0447,-15.0495,-15.0272,-15.0256,-15.03,-15.0558,-15.0663,-15.0695,-15.1183,-15.0759,-15.0784,-15.08,-15.0811,-15.206,-15.2076,0,0,0,0,0,0,-14.9704,-14.9755,-15.0157,-15.0157,-15.0155,-15.0385,-15.0376,-15.0757,-15.0342,-15.0266,-15.0304,-15.0286,-15.0562,-15.0593,-15.0689,-15.1164,-15.1178,-15.076,-15.0777,-15.0788,-15.0796,0,0,0,0,0,0,0,-14.9723,-14.9391,-15.0215,-15.0152,-15.015,-15.0549,-15.0554,-15.056,-15.0338,-15.0323,-15.0308,-15.0293,-15.062,-15.0647,-15.0674,-15.1149,0,0,-15.0758,-15.0769,0,0,0,0,0,0,0,0,-14.9369,-14.9386,-15.0216,-15.022,-15.0224,-15.055,-15.0554,-15.0559,-15.0336,-15.0323,-15.0311,-15.0299,-15.0627,-15.0649,-15.0671,0,0,0,0,0,0,0,0,0,0,0,0,0,0,0,-15.0216,-15.022,0,-15.055,-15.0554,-15.0558,-15.0334,-15.0324,-15.0313,-15.0304,-15.0633,-15.0651,-15.0669,0,0,0,0,0,0,0,0,0,0,0,0,0,0,0,0,0,0,0,0,0,0,0,0,0,0,0,0,0,0,0,0,0,0,0,0,0,0,0,0,0,0,0,0,0,0,0,0,0,0,0,0,0,0,0,0,0,0,0,0,0,0,0,0,0,0,0,0,0]}]]]